This demonstration page uses our WeatherBlox Daily Observations layout. Learn more.

Left ArrowRight Arrow

Hourly Observations for November 17, 2018

Temp ( °F °C ) Dew Point ( °F °C ) Humidity (%) Winds ( mph kmh ) Pressure ( in mb ) Visibility ( mi km ) Precip ( " mm )
12:52 am 00:52 Cloudy 43 6.1 34 1.1 71 71 SW 5 7 30.01 1016 10 16 0.00 0.00
1:52 am 01:52 Cloudy 39 3.9 33 0.6 79 79 N 23 37 30.06 1018 10 16 0.00 0.00
2:02 am 02:02 Cloudy 38 3.3 32 0 79 79 N 22 35 30.09 1019 10 16 0.00 0.00
2:52 am 02:52 Cloudy 35 1.7 30 -1.1 82 82 N 18 30 30.11 1020 10 16 0.00 0.00
3:11 am 03:11 Cloudy 35 1.7 30 -1.1 82 82 N 20 31 30.18 1022 10 16 0.00 0.00
3:28 am 03:28 Cloudy 34 1.1 29 -1.7 82 82 N 17 28 30.18 1022 10 16 0.00 0.00
3:52 am 03:52 Cloudy 34 1.1 29 -1.7 82 82 N 16 26 30.16 1022 10 16 0.00 0.00
4:52 am 04:52 Cloudy 33 0.6 27 -2.8 78 78 N 23 37 30.19 1022 10 16 0.00 0.00
5:52 am 05:52 Cloudy 32 0 27 -2.8 82 82 N 18 30 30.27 1025 10 16 0.00 0.00
6:52 am 06:52 Cloudy 32 0 26 -3.3 79 79 N 28 44 30.29 1026 10 16 0.00 0.00
7:52 am 07:52 Cloudy 30 -1.1 25 -3.9 82 82 NNE 24 39 30.33 1027 10 16 0.00 0.00
8:52 am 08:52 Cloudy 30 -1.1 23 -5 75 75 N 16 26 30.37 1028 10 16 0.00 0.00
9:52 am 09:52 Cloudy 29 -1.7 19 -7.2 66 66 NNE 23 37 30.39 1029 10 16 0.00 0.00
10:32 am 10:32 Mostly Cloudy 30 -1.1 20 -6.7 66 66 N 20 31 30.42 1030 10 16 0.00 0.00
10:52 am 10:52 Mostly Cloudy 29 -1.7 20 -6.7 69 69 N 21 33 30.41 1030 10 16 0.00 0.00
11:52 am 11:52 Cloudy 28 -2.2 18 -7.8 66 66 N 22 35 30.41 1030 10 16 0.00 0.00
12:52 pm 12:52 Cloudy 27 -2.8 17 -8.3 66 66 N 20 31 30.40 1030 10 16 0.00 0.00
1:37 pm 13:37 Cloudy 27 -2.8 17 -8.3 66 66 N 20 31 30.45 1031 10 16 0.00 0.00
1:52 pm 13:52 Windy with Snow Likely 27 -2.8 16 -8.9 63 63 N 20 31 30.42 1030 9 14 0.00 0.03
2:42 pm 14:42 Cloudy with Light Snow 26 -3.3 16 -8.9 66 66 N 17 28 30.45 1031 9 14 0.00 0.03
2:52 pm 14:52 Windy with Snow Likely 26 -3.3 16 -8.9 66 66 N 20 31 30.42 1030 9 14 0.00 0.03
3:00 pm 15:00 Windy with Snow Likely 26 -3.3 16 -8.9 66 66 N 20 31 30.45 1031 8 13 0.00 0.03
3:25 pm 15:25 Windy with Snow Likely 25 -3.9 17 -8.3 72 72 N 21 33 30.45 1031 2 3 0.00 0.03
3:37 pm 15:37 Windy with Snow Likely 25 -3.9 17 -8.3 72 72 N 20 31 30.45 1031 2 3 0.00 0.03
3:52 pm 15:52 Cloudy with Light Snow 24 -4.4 17 -8.3 75 75 N 16 26 30.44 1031 1 2 0.00 0.03
4:06 pm 16:06 Cloudy with Light Snow 24 -4.4 17 -8.3 75 75 N 18 30 30.45 1031 3 4 0.00 0.03
4:16 pm 16:16 Cloudy with Light Snow 25 -3.9 17 -8.3 72 72 N 16 26 30.48 1032 5 8 0.00 0.03
4:52 pm 16:52 Cloudy with Light Snow 24 -4.4 18 -7.8 77 77 N 18 30 30.45 1031 3 5 0.00 0.03
5:42 pm 17:42 Cloudy with Light Snow 24 -4.4 19 -7.2 81 81 N 17 28 30.48 1032 2 3 0.00 0.03
5:52 pm 17:52 Cloudy with Light Snow 23 -5 18 -7.8 81 81 N 17 28 30.45 1031 2 3 0.00 0.03
6:00 pm 18:00 Cloudy with Light Snow 23 -5 18 -7.8 81 81 N 17 28 30.48 1032 3 5 0.01 0.25
6:52 pm 18:52 Cloudy with Light Snow 24 -4.4 17 -8.3 75 75 N 16 26 30.47 1032 9 14 0.01 0.25
7:52 pm 19:52 Cloudy with Light Snow 24 -4.4 15 -9.4 68 68 N 13 20 30.47 1032 9 14 0.00 0.03
8:52 pm 20:52 Cloudy 23 -5 14 -10 68 68 N 16 26 30.48 1032 10 16 0.00 0.03
9:52 pm 21:52 Cloudy 22 -5.6 14 -10 71 71 N 14 22 30.49 1033 10 16 0.00 0.00
10:52 pm 22:52 Cloudy 22 -5.6 14 -10 71 71 N 14 22 30.49 1033 10 16 0.00 0.00
11:52 pm 23:52 Mostly Cloudy 21 -6.1 13 -10.6 71 71 N 8 13 30.48 1032 10 16 0.00 0.00

Powered by AerisWeather